Flag for U.S.A. Weather past 2 weeks in Providence, Rhode Island, U.S.A.

Now
34 °F

Passing clouds.


Feels Like: 25 °F
Forecast: 34 / 44 °F
Wind: 12 mph from Northwest

Location: Green State Airport


UV Index: 5 (Moderate)

Visibility: 10 mi


Pressure: 29.98 "Hg

Humidity: 73%

Dew point: 26 °F

Location of ProvidenceLocation

Historic Weather in Providence

°F

Providence temperature yesterday

Maximum temperature yesterday: 66 °F (at 11:51 AM)
Minimum temperature yesterday: 42 °F (at 11:51 PM)
Average temperature yesterday: 59 °F

Past Weeks' High & Low Weather Summary

 TemperatureHumidityPressure
High71 °F (Apr 14, 11:51 AM)100% (Apr 8, 6:51 AM)30.26 "Hg (Apr 8, 6:51 AM)
Low31 °F (Apr 2, 5:51 AM)16% (Apr 3, 10:51 AM)29.38 "Hg (Apr 8, 3:51 PM)
Average50 °F60%29.97 "Hg
* Reported Apr 1 5:51 AM — Apr 16 5:51 AM, Providence, Weather by CustomWeather, © 2014

Note: Actual official high and low records may vary slightly from our data, if they occured in-between our weather recording intervals... More about our weather records

Advertising

Historic Weather Conditions — Data for Previous 24 hours

 ConditionsComfort  
Time TempWeatherWind HumidityBarometerVisibility
5:51 AM
Apr 16
34 °FPassing clouds.12 mph73%29.98 "Hg10 mi
4:51 AM34 °FLight rain. Mostly cloudy.9 mph82%29.90 "Hg10 mi
3:51 AM34 °FHeavy rain. Fog.7 mph88%29.88 "Hg3 mi
2:51 AM37 °FLight rain. Mostly cloudy.10 mph86%29.87 "Hg9 mi
1:51 AM39 °FRain. Fog.13 mph86%29.80 "Hg6 mi
12:51 AM40 °FLight rain. Fog.16 mph86%29.79 "Hg4 mi
11:51 PM
Apr 15
42 °FLight rain. Overcast.13 mph82%29.75 "Hg8 mi
10:51 PM47 °FLight rain. Mostly cloudy.14 mph86%29.70 "Hg10 mi
10:03 PM51 °FRain. Fog.17 mph89%29.66 "Hg5 mi
9:51 PM56 °FHeavy rain. Fog.18 mph93%29.65 "Hg4 mi
9:02 PM61 °FHeavy rain. Fog.20 mph90%29.62 "Hg2 mi
8:51 PM61 °FHeavy rain. Fog.23 mph90%29.60 "Hg4 mi
6:51 PM59 °FLight rain. Fog.24 mph90%29.62 "Hg6 mi
5:56 PM59 °FRain. Fog.24 mph93%29.64 "Hg3 mi
4:59 PM62 °FLight rain. Fog.32 mph86%29.65 "Hg6 mi
3:51 PM61 °FLight rain. Fog.32 mph90%29.65 "Hg6 mi
2:58 PM60 °FRain. Fog.32 mph90%29.67 "Hg2 mi
2:03 PM60 °FHeavy rain. Fog.28 mph90%29.70 "Hg1 mi
12:51 PM63 °FLight rain. Overcast.20 mph75%29.73 "Hg7 mi
11:51 AM66 °FCloudy.29 mph65%29.77 "Hg10 mi
10:51 AM65 °FMostly cloudy.22 mph76%29.80 "Hg10 mi
9:51 AM61 °FMostly cloudy.23 mph87%29.82 "Hg7 mi
8:51 AM60 °FLight rain. Fog.20 mph93%29.83 "Hg1 mi
7:51 AM60 °FLight rain. Fog.17 mph90%29.85 "Hg4 mi
Weather by CustomWeather, © 2014

See weather overview